Lapse_Rate
6.4 6.4 6.5 6.5 6.6 6.7 6.8 6.8 6.8 6.8 6.8 6.7 6.8 6.9 7.0 7.0 7.0 7.0 7.0 7.0 7.0 7.0 6.9 6.9 6.8 6.9 6.8 6.8 7.2 7.0 6.9 6.9 6.9 7.0 7.2 7.1 7.1 6.9 7.1 7.6 8.0 8.2 8.7 9.2 9.2 8.7 8.3
6.2 6.3 6.3 6.4 6.3 6.4 6.5 6.7 6.9 6.9 6.9 6.9 6.7 6.8 6.9 7.0 7.0 7.0 7.1 7.1 7.0 7.0 7.0 7.0 7.0 6.9 6.9 7.1 6.7 7.1 7.4 7.1 6.9 6.9 7.0 6.9 7.1 6.9 7.3 7.7 8.0 8.4 8.9 8.9 8.6 8.8 8.4
6.2 6.2 6.2 6.2 6.2 6.3 6.3 6.3 6.5 6.6 6.8 6.8 6.8 6.8 6.9 6.9 6.9 7.0 7.1 7.1 7.2 7.2 7.1 7.0 7.0 7.0 7.1 7.2 7.0 7.0 7.2 7.2 7.0 7.1 7.2 7.1 7.1 7.0 7.3 7.5 7.8 7.9 8.2 8.5 8.4 8.2 8.3
6.0 6.1 6.1 6.2 6.3 6.3 6.3 6.3 6.3 6.4 6.5 6.6 6.6 6.7 6.8 7.0 7.0 6.9 7.0 7.0 7.1 7.3 7.3 7.3 7.1 7.0 7.3 7.1 7.0 7.2 7.1 7.4 7.2 7.3 7.2 7.2 7.1 6.8 7.0 7.2 7.4 7.7 7.9 7.9 8.0 8.4 8.4
5.9 6.0 6.1 6.1 6.1 6.2 6.3 6.4 6.4 6.3 6.3 6.4 6.5 6.5 6.7 6.7 6.9 7.0 7.0 7.0 7.1 7.1 7.2 7.3 7.2 7.1 7.2 7.4 7.2 7.4 7.4 7.3 7.4 7.4 7.3 7.3 6.8 6.8 7.0 7.1 7.4 7.7 7.8 7.9 8.0 8.4 9.2
5.9 5.9 6.0 6.0 6.0 6.1 6.1 6.2 6.3 6.5 6.6 6.5 6.4 6.4 6.5 6.7 6.8 6.8 6.9 7.0 7.0 7.1 7.2 7.2 7.2 7.3 7.1 7.2 6.7 7.3 7.2 7.5 7.4 7.4 7.3 7.2 7.4 7.2 7.2 7.3 7.6 8.0 8.2 8.0 8.2 8.4 9.0
5.7 5.8 5.8 5.8 5.8 5.8 5.8 5.9 6.1 6.3 6.5 6.6 6.6 6.5 6.7 6.6 6.7 6.9 7.0 7.0 7.1 7.0 7.3 7.1 6.8 7.3 7.3 7.1 7.1 7.2 6.9 7.5 7.4 7.2 7.1 7.2 7.2 7.2 7.6 7.7 8.0 8.4 8.5 8.7 9.0 9.1 9.0
5.5 5.6 5.6 5.7 5.7 5.7 5.7 5.9 6.0 6.2 6.3 6.5 6.5 6.4 6.5 6.6 6.7 6.8 6.9 7.0 6.9 6.7 7.0 7.1 7.3 7.0 7.6 7.3 7.1 7.7 6.9 7.1 7.4 7.1 7.3 7.0 6.7 7.2 8.1 8.5 8.7 8.7 8.7 8.6 9.3 9.6 9.5
5.4 5.4 5.5 5.6 5.7 5.8 5.8 5.8 6.0 6.2 6.3 6.4 6.5 6.5 6.3 6.4 6.5 6.6 6.7 6.8 6.8 6.7 6.6 7.5 7.6 7.6 7.7 7.5 7.6 8.0 7.4 7.0 7.0 6.9 7.3 7.1 7.2 7.7 7.8 7.7 8.4 8.7 8.8 9.0 9.4 9.5 9.5
5.3 5.3 5.3 5.4 5.6 5.7 5.9 5.9 6.1 6.2 6.3 6.4 6.5 6.5 6.5 6.4 6.6 6.6 6.7 6.7 6.8 6.6 6.7 7.1 7.2 7.1 7.8 7.8 7.3 7.7 8.0 7.5 7.2 7.2 7.7 7.7 7.8 8.0 7.8 7.7 8.0 8.4 8.7 9.1 9.4 9.0 9.0
5.2 5.2 5.2 5.3 5.5 5.6 5.7 5.8 6.0 6.1 6.2 6.5 6.6 6.6 6.6 6.7 6.5 6.6 6.7 6.7 6.8 6.9 5.6 8.0 7.4 7.0 7.2 7.8 7.9 8.8 7.9 7.7 7.5 7.8 8.2 7.1 8.2 8.2 8.4 8.0 8.3 8.0 8.5 8.6 8.7 9.0 8.7
5.1 5.1 5.2 5.2 5.3 5.5 5.5 5.7 5.7 5.9 6.1 6.2 6.3 6.4 6.5 6.5 6.6 6.7 6.7 6.8 6.9 6.6 5.1 8.0 8.1 8.1 8.2 8.2 8.1 8.1 8.4 8.1 7.8 8.1 8.2 7.3 8.2 8.9 8.4 9.1 9.1 8.8 9.1 8.8 9.0 9.0 9.1
5.0 5.0 5.0 5.1 5.1 5.2 5.4 5.5 5.6 5.7 5.9 6.0 6.1 6.1 6.3 6.5 6.6 6.7 6.7 6.8 6.7 5.9 7.9 8.2 8.9 9.5 9.3 8.5 8.8 8.6 8.7 8.9 8.6 8.6 8.2 7.7 8.4 8.4 8.7 9.0 9.5 9.5 9.4 9.2 9.2 9.0 8.1
5.0 5.0 4.9 5.0 4.9 5.0 5.1 5.3 5.5 5.6 5.8 5.9 6.1 6.1 6.2 6.4 6.6 6.7 6.8 6.7 6.2 6.7 7.9 8.5 8.9 8.4 8.8 8.9 9.1 9.1 9.1 8.7 9.3 9.1 8.8 8.3 8.6 8.6 8.5 9.0 9.0 9.4 9.3 9.1 8.2 9.1 9.0
4.9 5.0 4.9 5.0 4.9 5.0 5.0 5.1 5.3 5.4 5.6 5.8 5.8 6.2 6.2 6.2 6.4 6.5 6.6 5.9 6.5 7.3 8.0 7.7 7.0 7.9 8.5 8.9 9.1 9.2 9.6 9.3 8.8 9.3 9.6 9.5 8.9 8.3 9.2 9.6 9.6 9.2 9.5 8.6 9.5 9.3 9.3
5.1 5.1 5.2 5.1 5.2 5.3 5.3 5.3 5.4 5.4 5.4 5.5 5.6 5.8 5.8 6.3 6.2 6.2 6.0 6.0 6.6 7.2 7.4 6.6 6.5 7.3 7.8 8.1 8.3 8.4 8.7 9.1 9.7 9.2 9.1 8.7 9.5 8.7 9.1 9.2 9.5 9.7 9.2 9.3 9.3 8.6 8.8
5.3 5.2 5.2 5.2 5.3 5.3 5.3 5.3 5.3 5.4 5.3 5.1 5.2 5.3 4.4 5.2 5.5 5.5 5.5 5.6 5.9 6.4 6.2 6.3 6.4 6.4 6.2 6.3 6.9 7.2 7.8 8.2 8.8 9.2 9.6 9.4 9.3 8.4 9.2 9.5 9.2 9.4 9.6 9.4 9.2 9.3 9.0
5.2 5.2 5.1 5.1 5.2 5.3 5.3 5.4 5.3 5.2 5.2 4.9 5.0 4.8 4.4 4.6 4.3 4.0 4.6 5.2 5.3 5.4 5.5 5.5 5.6 5.7 5.7 5.9 5.8 6.2 6.9 7.3 8.7 8.4 8.4 8.8 9.2 9.4 9.1 9.4 9.4 9.3 9.6 9.4 9.2 8.8 9.4
5.3 5.4 5.3 5.3 5.3 5.2 5.3 5.2 5.2 5.1 5.0 4.9 4.9 4.8 4.7 4.4 4.1 4.1 4.3 4.5 4.7 5.1 5.4 5.7 5.7 5.7 5.6 5.5 5.5 5.6 6.0 6.9 6.7 7.2 7.7 8.4 8.4 9.1 9.0 9.0 9.4 9.5 9.2 9.7 9.2 9.1 9.1
5.1 5.3 5.2 5.2 5.3 5.2 5.1 5.0 5.1 5.0 5.0 4.7 4.5 4.2 4.4 4.2 4.2 4.1 4.3 4.5 4.7 5.1 5.3 5.7 5.6 5.7 5.6 5.6 5.6 5.5 5.7 5.9 6.2 6.7 6.9 7.4 7.6 7.9 8.7 8.2 8.4 9.0 9.3 9.1 9.6 9.4 8.9
5.1 5.3 5.2 5.3 5.3 5.3 5.2 5.0 4.9 5.0 4.9 4.7 4.4 4.3 4.2 4.5 4.6 4.8 4.8 4.9 4.7 5.0 5.3 5.5 5.5 5.6 5.7 5.7 5.7 5.9 5.8 6.1 6.2 6.3 6.4 6.7 6.7 7.7 8.1 8.1 8.1 8.3 9.4 9.3 9.6 9.1 9.2
5.2 5.3 5.3 5.2 5.2 5.2 5.0 4.9 4.9 4.8 4.7 4.3 4.4 4.4 4.4 4.3 4.4 4.7 4.9 4.7 5.0 5.2 5.6 5.5 5.9 5.7 5.6 5.7 5.6 5.7 6.0 5.9 5.9 5.9 6.3 6.6 6.9 7.3 7.6 7.8 7.9 8.4 8.2 9.4 9.5 9.1 9.0
5.2 5.1 5.2 5.2 5.2 5.0 5.1 4.8 4.7 4.7 4.2 4.3 4.5 4.6 4.6 4.5 4.2 4.6 4.8 5.1 5.3 5.7 5.4 6.0 6.4 6.4 6.5 6.4 7.7 7.7 7.8 6.8 6.4 5.8 5.7 5.9 6.3 6.7 7.6 8.3 7.9 8.8 8.1 9.4 9.2 9.6 9.0
5.2 5.3 5.2 5.1 4.9 4.7 4.5 4.6 4.7 4.7 4.4 4.6 4.6 4.7 4.6 4.5 4.3 4.4 5.0 5.5 6.0 6.5 6.8 7.0 7.9 7.7 7.7 8.0 7.9 7.8 7.7 7.6 7.4 7.3 7.4 6.1 6.4 6.3 6.7 7.8 8.4 8.9 8.3 8.9 9.2 9.0 8.9
5.1 5.1 4.9 4.8 4.4 4.2 4.2 4.3 4.4 4.5 4.4 4.4 4.8 5.0 5.5 4.9 4.6 4.6 6.1 6.4 6.9 7.3 7.7 8.0 7.9 8.0 7.8 7.8 7.8 7.7 7.4 7.7 7.5 7.6 7.7 7.1 6.6 6.3 6.8 7.7 8.1 8.5 8.9 8.9 8.8 9.2 9.1
4.7 4.4 4.2 4.0 3.7 3.7 3.7 3.7 3.7 3.9 4.1 4.3 4.9 5.6 6.0 6.1 4.9 6.8 6.6 7.0 7.1 7.4 7.5 7.7 7.8 8.0 7.9 7.8 7.5 7.3 7.5 7.8 8.1 8.5 8.5 8.2 6.7 6.3 6.7 7.1 8.3 8.4 8.8 8.9 9.2 9.4 9.2
3.5 3.4 3.4 3.3 3.4 3.4 3.5 3.6 3.8 3.9 4.2 4.7 5.4 6.1 6.5 7.0 6.3 7.2 7.1 7.1 7.3 7.3 7.2 7.5 7.7 7.6 7.6 7.4 7.4 7.5 7.1 7.8 7.6 7.9 8.2 8.5 7.4 6.9 6.2 6.6 7.0 8.1 8.6 9.4 9.5 9.4 9.3
3.5 3.4 3.4 3.4 3.5 3.6 3.7 3.9 4.4 4.7 5.1 5.5 6.1 6.8 7.3 7.3 6.9 7.3 7.2 7.3 7.4 7.5 7.3 7.7 7.3 7.6 7.6 7.3 7.3 7.2 7.0 7.2 7.6 7.9 7.8 8.0 7.5 6.9 6.0 6.2 6.7 8.6 9.3 9.4 9.0 9.5 9.3
3.3 3.3 3.3 3.6 3.7 4.2 4.6 4.9 5.2 5.6 6.0 6.5 6.7 7.4 7.5 7.1 6.7 7.1 7.4 7.8 7.9 7.8 7.6 7.4 7.4 7.3 6.8 6.8 6.7 6.5 6.4 6.5 6.8 7.2 8.2 8.3 7.9 7.3 7.5 7.4 8.7 8.4 7.6 8.7 8.8 9.2 8.7
Wind_Speed
18 18 18 19 19 20 20 21 22 23 24 25 26 28 29 30 31 32 33 32 30 29 26 22 19 13 6 6 11 9 9 6 5 11 16 17 17 15 18 17 20 22 20 15 12 8 6
17 18 18 19 19 20 20 21 22 24 25 26 27 29 30 31 32 33 33 32 31 28 26 21 12 4 5 11 7 15 5 6 9 12 16 18 19 16 19 19 20 21 16 14 17 12 11
17 18 18 19 20 21 22 23 24 24 25 27 29 31 33 33 34 35 35 34 31 28 24 14 9 5 9 17 12 11 5 7 12 13 16 19 20 19 17 20 20 19 20 16 14 15 16
17 17 18 19 19 20 21 23 24 26 27 28 29 31 33 34 38 39 37 35 31 27 18 10 5 7 8 10 9 10 13 11 9 11 17 18 17 16 15 13 19 21 18 16 17 19 19
16 17 17 18 18 19 20 21 23 24 26 28 30 32 34 35 37 40 40 40 33 21 9 4 5 7 9 2 8 9 9 12 13 8 14 16 20 19 18 17 16 17 16 21 22 21 19
16 16 16 16 17 18 19 20 21 23 26 27 30 33 36 37 39 42 41 45 14 3 7 9 9 7 8 9 2 6 7 7 9 8 10 14 14 15 16 14 16 19 18 20 20 20 21
15 16 17 17 18 18 19 20 21 22 24 26 28 32 37 38 40 43 25 6 5 4 7 12 14 16 19 14 4 10 9 5 10 8 11 13 12 19 22 22 24 21 23 24 22 21 21
15 16 17 17 18 19 20 20 21 22 24 26 27 30 37 37 39 40 14 8 7 4 13 18 22 21 24 19 16 13 9 7 12 15 14 14 20 19 16 19 24 25 27 25 24 23 16
16 16 17 17 18 18 19 20 21 21 22 24 26 30 36 40 42 16 10 14 13 12 7 13 16 14 16 17 21 22 18 17 15 18 19 19 17 17 21 21 22 22 21 21 25 24 16
14 16 17 18 18 19 18 19 20 20 21 22 23 27 33 41 9 14 5 16 16 7 5 8 7 4 7 8 11 15 21 22 19 22 20 21 21 22 22 22 20 20 23 24 20 20 16
14 15 17 17 19 19 19 19 18 19 19 20 21 24 29 28 9 9 14 21 17 5 6 5 9 5 1 6 12 7 14 17 25 21 16 25 22 23 24 25 21 21 18 19 20 19 22
15 15 16 18 20 20 21 19 18 19 19 20 21 23 25 12 7 11 23 21 8 3 6 6 6 5 10 12 13 15 13 7 16 22 22 27 23 23 26 23 24 22 21 19 18 15 17
14 15 16 17 20 21 22 20 18 20 21 22 25 27 20 12 8 19 18 8 5 5 8 11 15 15 17 18 14 13 15 13 14 15 18 26 25 25 24 24 22 21 18 11 14 15 20
15 16 17 17 19 21 21 21 19 19 20 22 29 34 11 12 15 14 9 5 6 8 13 22 23 20 20 19 20 20 18 19 19 18 16 19 19 25 25 24 23 18 16 12 26 16 19
15 16 16 17 18 20 21 20 21 20 20 22 30 7 8 9 10 8 5 6 6 9 13 14 20 16 17 18 18 20 20 19 24 23 19 19 27 25 28 23 25 22 20 22 19 20 15
14 14 16 17 18 19 20 19 19 20 20 20 9 11 9 4 5 5 5 10 15 14 20 14 13 11 18 19 17 16 20 23 21 21 22 27 23 24 24 25 26 28 19 17 14 21 23
14 13 15 17 17 18 17 19 17 18 20 18 6 6 6 5 2 3 6 8 13 13 13 7 14 19 20 23 24 22 21 25 28 28 21 22 22 27 25 24 25 19 21 15 16 15 18
16 15 14 16 17 17 18 17 17 17 21 13 3 4 4 1 3 3 9 11 10 14 15 16 19 21 23 23 26 24 24 23 26 27 28 26 24 19 27 25 26 27 23 25 14 24 14
16 16 15 16 18 17 17 17 16 15 14 4 4 9 8 5 6 10 17 23 23 21 21 21 22 21 22 24 25 22 26 30 30 29 19 21 16 20 24 23 25 26 27 22 23 18 23
18 16 15 17 18 17 17 16 16 15 12 5 3 3 3 6 11 15 18 21 23 21 23 20 21 22 24 25 25 28 29 30 28 31 30 21 24 26 19 22 25 28 29 27 23 15 20
20 18 17 17 18 17 16 17 17 15 12 3 3 6 9 7 10 15 18 16 23 24 21 21 23 23 24 25 27 27 26 28 29 29 28 23 28 28 29 31 30 37 34 30 26 26 22
20 21 18 20 19 18 18 17 17 16 15 7 4 3 7 15 19 20 21 22 27 28 24 26 24 24 22 24 25 26 27 21 25 26 26 25 27 20 29 31 32 36 40 33 29 26 25
21 22 21 20 19 21 19 18 17 16 12 4 7 10 8 13 19 16 18 23 27 27 27 27 28 25 25 25 21 21 20 22 24 25 24 19 4 13 24 30 32 34 35 31 29 24 24
23 23 22 20 20 19 19 19 19 19 16 7 6 6 5 13 14 18 22 26 28 29 28 32 22 25 29 24 24 21 22 28 27 27 23 25 17 12 9 23 38 22 31 28 25 27 27
22 22 21 21 22 22 21 22 21 21 21 10 9 6 3 10 16 23 26 22 21 24 26 29 25 24 22 14 11 16 16 23 28 29 27 22 15 6 7 19 22 30 28 28 29 27 27
22 22 22 22 23 24 22 23 23 22 23 15 9 9 5 6 13 25 23 25 20 20 25 26 21 12 4 5 9 13 16 25 19 19 26 25 23 13 9 9 28 25 26 28 26 25 22
22 23 24 24 25 24 23 23 24 23 24 17 10 15 8 5 17 19 17 17 18 20 16 20 18 11 3 4 9 11 20 24 23 25 23 17 19 19 17 11 10 20 28 28 33 16 21
22 24 25 26 25 25 24 24 24 25 25 19 9 16 9 7 17 23 25 25 20 17 18 19 10 7 7 7 6 8 9 17 20 27 26 21 16 15 11 9 17 20 15 31 18 15 15
24 26 26 26 26 25 25 26 28 27 26 23 12 16 16 9 10 18 25 27 27 29 19 16 14 14 3 4 4 6 12 14 21 17 24 22 14 11 12 14 17 9 8 11 12 10 9
Wind_Direction
32 30 27 24 22 19 16 12 8 4 360 356 351 347 343 340 334 330 327 323 319 316 315 313 303 306 295 245 258 158 153 139 171 211 226 232 240 242 247 250 258 257 263 274 298 293 285
28 26 24 21 19 17 15 11 7 3 359 355 350 345 341 337 333 328 322 318 314 312 310 310 294 268 253 266 274 166 233 182 247 205 224 238 235 239 251 252 260 264 265 268 279 276 262
24 21 19 16 15 12 9 7 5 2 359 355 349 344 340 337 331 324 319 314 310 308 307 301 280 236 265 251 301 300 215 241 220 231 234 235 246 250 248 262 269 282 281 272 251 264 267
25 20 16 14 12 8 8 4 360 357 355 353 348 341 337 336 330 323 318 313 307 303 297 284 248 242 261 273 277 287 266 251 236 243 223 245 250 261 269 288 272 263 262 264 259 252 241
17 14 11 9 7 4 3 1 358 355 351 350 347 339 336 334 329 323 320 311 303 291 258 237 220 226 269 171 233 237 242 263 261 250 242 236 233 235 240 246 255 260 248 241 251 258 256
13 11 10 8 5 1 360 359 356 353 350 348 346 340 334 334 330 325 321 303 279 269 232 217 255 278 259 254 31 328 286 224 242 272 252 227 237 237 235 238 239 238 240 242 255 248 241
9 6 5 3 2 0 357 356 353 351 349 347 346 340 333 333 330 325 333 339 348 191 343 290 293 263 292 260 225 279 220 199 230 231 223 238 231 225 227 229 249 248 257 253 246 232 247
5 3 359 358 358 355 354 355 353 350 349 347 344 341 330 331 328 321 337 48 41 295 304 287 264 260 257 268 274 252 256 204 212 220 213 230 231 247 255 251 248 249 259 260 270 271 240
0 357 355 352 354 351 347 349 351 350 348 347 343 339 330 329 322 320 352 14 351 345 268 284 248 239 250 234 247 254 243 225 233 225 227 220 238 221 246 256 246 262 267 263 269 282 290
355 352 352 350 349 349 346 342 344 346 345 345 342 335 330 331 312 321 46 349 342 355 278 265 194 243 217 246 269 247 233 241 225 243 231 245 231 242 221 238 260 263 246 265 291 298 286
347 347 349 347 349 349 346 343 340 343 343 343 338 331 328 323 304 334 334 330 322 282 325 329 135 100 140 220 336 64 210 224 249 238 237 253 239 239 242 237 215 251 272 287 293 246 272
341 346 344 344 346 346 344 343 342 342 342 341 334 326 330 334 284 342 331 315 284 240 245 258 191 214 227 225 248 257 269 234 248 244 253 263 253 256 245 242 243 248 233 236 254 261 260
346 345 341 340 342 346 348 348 343 342 340 338 330 322 321 303 314 325 325 297 265 200 311 273 279 284 301 289 267 262 275 238 245 243 247 260 258 258 259 267 250 235 239 243 243 232 247
339 342 339 338 339 344 347 350 346 342 338 336 326 315 301 305 313 326 307 259 249 256 266 299 311 315 284 281 283 283 281 282 278 247 256 270 268 246 243 250 254 237 244 225 241 242 250
328 332 334 336 335 340 342 345 351 347 341 339 323 323 305 313 323 311 290 244 234 269 308 353 330 293 278 272 274 280 264 259 271 279 279 266 260 263 277 252 234 241 242 243 254 255 270
316 323 331 330 331 333 339 341 347 345 343 341 325 306 288 81 330 287 255 254 271 291 327 337 298 302 298 296 295 294 290 293 270 262 274 280 286 278 265 273 272 223 226 245 242 243 246
315 313 319 322 324 326 329 335 338 341 335 325 297 317 91 68 268 245 234 249 288 310 328 326 307 305 299 297 295 288 281 287 288 293 287 280 283 281 280 263 261 270 217 219 252 231 241
308 308 310 314 316 321 324 326 331 336 334 311 279 273 88 185 268 228 243 258 301 290 301 288 284 282 281 285 285 281 274 269 290 298 293 291 282 276 278 276 266 259 262 210 223 245 240
301 303 307 312 312 314 315 320 324 326 338 330 285 276 268 212 254 258 266 264 262 272 276 280 278 275 278 276 275 267 273 275 282 280 282 294 289 280 280 277 260 253 254 232 217 231 251
296 296 298 305 305 306 307 309 317 316 320 317 287 287 308 201 248 266 278 278 281 279 278 281 280 278 275 269 267 272 270 269 269 275 277 292 277 271 265 269 282 277 247 249 222 224 238
296 290 293 300 300 300 302 300 298 304 295 301 246 252 265 269 264 264 266 276 279 282 285 284 280 275 279 282 283 275 280 279 270 265 270 274 272 269 272 265 262 262 255 243 235 223 236
294 293 290 293 290 293 297 295 293 298 293 257 261 256 262 272 279 279 276 275 279 284 285 281 283 281 284 285 275 281 289 281 279 279 284 256 267 296 269 261 262 254 265 241 244 215 235
286 290 288 291 292 286 285 292 291 287 285 258 253 257 259 266 270 270 268 274 279 283 277 276 275 287 281 274 282 293 290 286 279 273 275 291 275 275 260 252 248 243 249 241 238 232 229
281 289 289 289 291 287 282 285 282 282 273 262 268 290 245 271 267 267 273 283 283 287 293 290 278 278 278 271 264 278 282 276 256 253 252 259 251 260 273 259 241 236 246 249 249 240 227
282 289 285 283 285 282 279 279 278 276 277 267 265 252 251 258 263 276 275 281 281 275 270 266 280 280 284 312 287 264 265 264 251 247 246 235 237 251 248 246 248 243 234 238 251 244 237
283 281 282 282 280 283 285 280 276 275 274 273 264 259 257 265 259 269 273 278 285 293 296 286 278 281 287 244 271 278 276 273 268 260 254 222 210 225 262 276 238 235 231 236 245 245 239
275 278 284 283 283 280 280 279 274 275 277 272 267 264 258 268 266 268 271 272 283 285 290 278 284 295 8 259 264 255 277 275 268 263 263 222 200 217 236 253 277 265 242 229 234 235 231
281 282 280 278 278 276 276 278 276 273 274 274 268 260 254 269 270 268 271 265 270 267 272 274 283 241 232 232 246 259 279 272 258 246 250 246 203 219 238 243 250 235 261 232 252 225 222
278 279 280 280 281 279 277 277 277 274 271 271 270 268 260 256 270 287 271 269 262 268 264 267 265 267 233 275 263 301 281 280 276 265 247 244 199 209 204 209 250 36 336 352 323 78 318